Weather at Culpeper Regional Airport

Public forecast

Using degrees Fahrenheit for public forecast. Weather courtesy of forecast.io.

Current aviation weather report (METAR) for Culpeper Regional Airport

Retrieved 2021/03/04 05:35 UTC (0 seconds ago):

KCJR 040535Z AUTO 00000KT 10SM CLR 00/M03 A2991 RMK AO2 T00021032

Closest aviation forecast (TAF) to Culpeper Regional Airport

Forecast is more than 12 hours old.

Closest forecast is Quantico MCAF /Turner field, 26.1 nm (48.2 km) E. Retrieved 2016/02/08 15:59 UTC (5 years ago):

TAF COR KNYG 081500Z 0815/0915 VRB06KT 9999 FEW080 SCT180 620209 621105 540009 540909 QNH2970INS BECMG 0822/0823 VRB06KT 9000 -RA FEW030 SCT080 BKN120 620209 621105 540009 540909 QNH2952INS BECMG 0905/0907 VRB06KT 8000 RASN 600000 500000 BKN020 OVC030 500000 QNH2947INS T07/0820Z T00/0911Z COR 1553